(126043) = 2001 YE71

Discovered at Socorro on 2001-12-18 by LINEAR.

Orbit

Orbit type: Main Belt

Note: WebGL enabled browser required.

epoch2024-03-31.0
epoch JD2460400.5
perihelion date2021-12-11.91547
perihelion JD2459560.41547
argument of perihelion (°)66.41801
ascending node (°)290.05089
inclination (°)2.25924
eccentricity0.2459968
perihelion distance (AU)1.9546859
Tisserand w.r.t. Jupiter3.4
ΔV w.r.t. Earth (km/sec)8.8
semimajor axis (AU)2.5924107
mean anomaly (°)198.36778
mean daily motion (°/day)0.23612840
aphelion distance (AU)3.230
period (years)4.17
P-vector [x]0.99743230
P-vector [y]-0.07110336
P-vector [z]0.00855123
Q-vector [x]0.06129820
Q-vector [y]0.90936915
Q-vector [z]0.41144900
absolute magnitude15.48
phase slope0.15
uncertainty0
referenceMPEC 2024-F14
observations used1258
oppositions20
arc length (days)11022
first opposition used1994
last opposition used2024
residual rms (arc-secs)0.66
perturbers coarse indicatorM-v
perturbers precise indicator003Ek
first observation date used1994-01-12.0
last observation date used2024-03-17.0
computer nameMPCLINUX
JD of orbit computation2456731.622771
perihelion JD uncertainty (days)3.9189E-05
argument of perihelion uncertainty (°)1.1527E-04
ascending node uncertainty (°)1.1463E-04
inclination uncertainty (°)3.6329E-06
eccentricity uncertainty 5.6108E-08
perihelion distance uncertainty (AU)1.4955E-07
Minimum Orbit Intersection Distances (in AU)
for orbit epoch: 2460400.5, reference: E2024-GB3
Mercury1.58682
Venus1.23303
Earth0.95165
Mars0.57111
Jupiter2.21733
Saturn6.15
Uranus15.2221
Neptune27.2828

Observations

1295 total observations over interval: 1994 01 12.44377 – 2024 03 17.505319
These data are available for download (format description).

Date (UT) J2000 RA J2000 Dec Magn Location Ref
1994 01 12.44377 09 34 49.17 +13 07 29.0   691 – Steward Observatory, Kitt Peak-Spacewatch MPS 52435
1994 01 12.47612 09 34 47.73 +13 07 33.9 19.7 V 691 – Steward Observatory, Kitt Peak-Spacewatch MPS 52435
1994 01 12.50848 09 34 46.23 +13 07 38.9   691 – Steward Observatory, Kitt Peak-Spacewatch MPS 52435
1996 08 13.36862 21 06 23.19 -14 27 07.1 17.6 V 566 – Haleakala-NEAT/GEODSS MPS 52435
1996 08 13.38098 21 06 22.52 -14 27 08.9 17.8 V 566 – Haleakala-NEAT/GEODSS MPS 52435
1996 08 13.38936 21 06 22.04 -14 27 10.0 17.9 V 566 – Haleakala-NEAT/GEODSS MPS 52435
2001 12 10.38021 07 33 19.98 +22 22 25.3 19.5   704 – Lincoln Laboratory ETS, New Mexico MPS 47109
2001 12 10.39519 07 33 19.23 +22 22 26.5 19.7   704 – Lincoln Laboratory ETS, New Mexico MPS 47109
2001 12 10.41017 07 33 18.50 +22 22 26.8 19.2   704 – Lincoln Laboratory ETS, New Mexico MPS 47109
2001 12 10.42516 07 33 17.81 +22 22 27.7 19.6   704 – Lincoln Laboratory ETS, New Mexico MPS 47109
2001 12 17.38387 07 27 33.39 +22 29 51.2 18.8   644 – Palomar Mountain/NEAT MPS 47109
2001 12 17.39424 07 27 32.81 +22 29 51.9 18.9   644 – Palomar Mountain/NEAT MPS 47109
2001 12 17.40613 07 27 32.14 +22 29 52.7 18.9   644 – Palomar Mountain/NEAT MPS 47109
2001 12 18.37992 07 26 38.54 +22 30 59.9 19.2   704 – Lincoln Laboratory ETS, New Mexico MPS 45505
2001 12 18.39600 07 26 37.59 +22 31 00.7 19.6   704 – Lincoln Laboratory ETS, New Mexico MPS 45505
2001 12 18.41137 07 26 36.80 +22 30 59.7 19.8   704 – Lincoln Laboratory ETS, New Mexico MPS 45505
2001 12 18.42861 07 26 35.79 +22 31 01.1 19.8   704 – Lincoln Laboratory ETS, New Mexico MPS 45505
2001 12 18.44380 07 26 34.78 +22 31 03.3 19.4   704 – Lincoln Laboratory ETS, New Mexico MPS 45505
2001 12 19.46253 07 25 37.40 +22 32 14.9 19.0   704 – Lincoln Laboratory ETS, New Mexico MPS 45505
2001 12 19.47768 07 25 36.54 +22 32 15.7 18.9   704 – Lincoln Laboratory ETS, New Mexico MPS 45505
2001 12 19.50818 07 25 34.71 +22 32 17.9 19.4   704 – Lincoln Laboratory ETS, New Mexico MPS 45505
2001 12 19.52331 07 25 33.87 +22 32 18.6 19.0   704 – Lincoln Laboratory ETS, New Mexico MPS 45505
2001 12 21.29716 07 23 51.49 +22 34 25.7 18.5   704 – Lincoln Laboratory ETS, New Mexico MPS 47109
2001 12 21.31218 07 23 50.62 +22 34 26.4 19.2   704 – Lincoln Laboratory ETS, New Mexico MPS 47109
2001 12 21.34257 07 23 48.73 +22 34 28.0 19.4   704 – Lincoln Laboratory ETS, New Mexico MPS 47109
2001 12 21.35763 07 23 47.81 +22 34 29.6 19.4   704 – Lincoln Laboratory ETS, New Mexico MPS 47109
2002 01 08.30013 07 04 36.96 +22 53 39.6 18.4   704 – Lincoln Laboratory ETS, New Mexico MPS 47109
2002 01 08.31505 07 04 35.96 +22 53 40.3 18.7   704 – Lincoln Laboratory ETS, New Mexico MPS 47109
2002 01 08.32996 07 04 34.96 +22 53 41.0 18.8   704 – Lincoln Laboratory ETS, New Mexico MPS 47109
2002 01 08.35980 07 04 33.00 +22 53 41.9 19.2   704 – Lincoln Laboratory ETS, New Mexico MPS 47109
2002 01 13.23281 06 59 21.30 +22 57 16.9 19.0   704 – Lincoln Laboratory ETS, New Mexico MPS 47109
2002 01 13.24794 06 59 20.35 +22 57 17.6 19.2   704 – Lincoln Laboratory ETS, New Mexico MPS 47109
2002 01 13.26309 06 59 19.36 +22 57 18.2 19.2   704 – Lincoln Laboratory ETS, New Mexico MPS 47109
2002 01 13.29340 06 59 17.43 +22 57 18.9 19.0   704 – Lincoln Laboratory ETS, New Mexico MPS 47109
2002 01 14.21244 06 58 20.42 +22 57 54.8 19.0 V 691 – Steward Observatory, Kitt Peak-Spacewatch MPS 47109
2002 01 14.23520 06 58 18.98 +22 57 55.8 19.1 V 691 – Steward Observatory, Kitt Peak-Spacewatch MPS 47109
2002 01 14.25818 06 58 17.52 +22 57 56.6 19.0 V 691 – Steward Observatory, Kitt Peak-Spacewatch MPS 47109
2002 01 14.31617 06 58 14.08 +22 57 58.9 20.1   608 – Haleakala-AMOS MPS 47109
2002 01 14.32729 06 58 13.39 +22 57 59.2 19.5   608 – Haleakala-AMOS MPS 47109
2002 01 14.33783 06 58 12.72 +22 57 59.7 19.7   608 – Haleakala-AMOS MPS 47109
2002 01 15.24357 06 57 17.21 +22 58 28.1 18.8   704 – Lincoln Laboratory ETS, New Mexico MPS 47109
2002 01 15.25874 06 57 16.22 +22 58 28.0 18.9   704 – Lincoln Laboratory ETS, New Mexico MPS 47109
2002 01 15.27392 06 57 15.31 +22 58 28.9 18.7   704 – Lincoln Laboratory ETS, New Mexico MPS 47109
2002 01 15.28910 06 57 14.35 +22 58 29.3 18.7   704 – Lincoln Laboratory ETS, New Mexico MPS 47109
2002 01 15.30429 06 57 13.41 +22 58 29.9 18.5   704 – Lincoln Laboratory ETS, New Mexico MPS 47109
2002 01 19.26437 06 53 20.31 +23 00 21.3 19.6   704 – Lincoln Laboratory ETS, New Mexico MPS 47109
2002 01 19.27950 06 53 19.41 +23 00 22.4 19.3   704 – Lincoln Laboratory ETS, New Mexico MPS 47109
2002 01 19.29463 06 53 18.51 +23 00 22.3 19.4   704 – Lincoln Laboratory ETS, New Mexico MPS 47109
2002 01 21.22549 06 51 31.29 +23 01 03.8 18.6   704 – Lincoln Laboratory ETS, New Mexico MPS 47109
2002 01 21.24026 06 51 30.48 +23 01 03.4 19.1   704 – Lincoln Laboratory ETS, New Mexico MPS 47109
2002 01 21.25510 06 51 29.67 +23 01 04.2 19.2   704 – Lincoln Laboratory ETS, New Mexico MPS 47109
2002 01 21.26988 06 51 28.80 +23 01 04.0 19.1   704 – Lincoln Laboratory ETS, New Mexico MPS 47109
2002 01 21.28478 06 51 27.99 +23 01 04.9 19.5   704 – Lincoln Laboratory ETS, New Mexico MPS 47109
2003 03 26.23157 11 47 53.40 -02 02 24.5 20.4   644 – Palomar Mountain/NEAT MPS 76109
2003 03 26.25277 11 47 52.35 -02 02 18.1 20.3   644 – Palomar Mountain/NEAT MPS 76109
2003 03 26.27224 11 47 51.35 -02 02 11.9 20.4   644 – Palomar Mountain/NEAT MPS 76109
2003 04 05.26395 11 39 54.04 -01 09 43.0 20.9 V 691 – Steward Observatory, Kitt Peak-Spacewatch MPS 76109
2003 04 05.29648 11 39 52.56 -01 09 33.3 20.7 V 691 – Steward Observatory, Kitt Peak-Spacewatch MPS 76109
2003 04 05.32411 11 39 51.36 -01 09 24.2 21.3 V 691 – Steward Observatory, Kitt Peak-Spacewatch MPS 76109
2004 07 15.17317 16 38 50.21 -23 30 21.8 19.1   704 – Lincoln Laboratory ETS, New Mexico MPS 110303
2004 07 15.18401 16 38 50.00 -23 30 19.7 19.5   704 – Lincoln Laboratory ETS, New Mexico MPS 110303
2004 07 15.19466 16 38 49.72 -23 30 18.6 19.4   704 – Lincoln Laboratory ETS, New Mexico MPS 110303
2004 07 15.20540 16 38 49.41 -23 30 16.7 19.5   704 – Lincoln Laboratory ETS, New Mexico MPS 110303
2004 07 15.21653 16 38 49.10 -23 30 15.9 19.2   704 – Lincoln Laboratory ETS, New Mexico MPS 110303
2004 07 16.16544 16 38 26.11 -23 28 18.5 18.5   704 – Lincoln Laboratory ETS, New Mexico MPS 110303
2004 07 16.18628 16 38 25.50 -23 28 15.7 19.3   704 – Lincoln Laboratory ETS, New Mexico MPS 110303
2004 07 16.19677 16 38 25.30 -23 28 13.4 19.4   704 – Lincoln Laboratory ETS, New Mexico MPS 110303
2004 07 16.20738 16 38 24.97 -23 28 13.2 19.2   704 – Lincoln Laboratory ETS, New Mexico MPS 110303
2005 11 25.40155 06 04 57.64 +25 18 57.0   691 – Steward Observatory, Kitt Peak-Spacewatch MPS 151967
2005 11 25.41892 06 04 56.66 +25 18 56.9   691 – Steward Observatory, Kitt Peak-Spacewatch MPS 151967
2005 11 25.43625 06 04 55.78 +25 18 55.9   691 – Steward Observatory, Kitt Peak-Spacewatch MPS 151967
2005 11 28.30459 06 02 22.45 +25 17 30.6 18.6   704 – Lincoln Laboratory ETS, New Mexico MPS 151967
2005 11 28.31811 06 02 21.71 +25 17 30.6 18.9   704 – Lincoln Laboratory ETS, New Mexico MPS 151967
2005 11 28.33166 06 02 20.90 +25 17 30.0 19.0   704 – Lincoln Laboratory ETS, New Mexico MPS 151967
2005 11 28.34524 06 02 20.14 +25 17 29.3 18.7   704 – Lincoln Laboratory ETS, New Mexico MPS 151967
2005 11 28.35863 06 02 19.33 +25 17 29.3 18.7   704 – Lincoln Laboratory ETS, New Mexico MPS 151967
2005 11 29.26137 06 01 28.67 +25 16 57.0 19.0 V 691 – Steward Observatory, Kitt Peak-Spacewatch MPS 151967
2005 11 29.27867 06 01 27.67 +25 16 56.8 20.1 V 691 – Steward Observatory, Kitt Peak-Spacewatch MPS 151967
2005 11 29.29593 06 01 26.63 +25 16 56.1 19.0 V 691 – Steward Observatory, Kitt Peak-Spacewatch MPS 151967
2005 12 01.32607 05 59 27.99 +25 15 37.6 18.7   704 – Lincoln Laboratory ETS, New Mexico MPS 153582
2005 12 01.33897 05 59 27.23 +25 15 37.6 18.6   704 – Lincoln Laboratory ETS, New Mexico MPS 153582
2005 12 01.35164 05 59 26.40 +25 15 37.1 18.9   704 – Lincoln Laboratory ETS, New Mexico MPS 153582
2005 12 01.36436 05 59 25.68 +25 15 36.6 18.9   704 – Lincoln Laboratory ETS, New Mexico MPS 153582
